{"data":{"norad_id":69572,"intl_designator":"2026-137A","name":"HULIANWANG DIGUI-169","alt_names":[],"object_type":"PAYLOAD","status":"ACTIVE","operator":null,"country":"PRC","launch_date":"2026-06-17","launch_site_code":"WSC","launch_vehicle":null,"mission":null,"orbit_class":"UNKNOWN","rcs_meters":null,"size_class":null,"mass_kg":null,"dimensions":null,"purposes":[],"wikipedia_slug":null,"has_3d_model":false,"image_url":null,"decayed_at":null,"tle_current":{"epoch":"2026-09-20T00:58:42.521088Z","epoch_age_seconds":68789,"freshness":"FRESH","line1":"1 69572U 26137A   26263.04076992 -.00000074  00000+0  10763-3 0  9995","line2":"2 69572  50.0002 255.9447 0000278 354.1157   5.9712 13.29326556 12949","mean_motion":13.29326556,"eccentricity":2.78e-5,"inclination_deg":50.0002,"raan_deg":255.9447,"arg_perigee_deg":354.1157,"mean_anomaly_deg":5.9712,"bstar":0.00010763,"rev_number":1294,"period_min":108.32552720026,"perigee_km":1149.0952100439,"apogee_km":1149.5137357898,"semimajor_km":7527.4414729168,"source":"CELESTRAK","updated_at":"2026-09-20T09:00:24.987213Z"}}}